Погода в Новгородке

Украина / Кировоградская область     48°21′54″N   32°39′25″E
темп.,
°C
ветер,
м/с
пор.,
м/с
влажн.,
%
обл.,
%
осадки,
мм/ч
давл.,
гПа
погр.,
м
15 мая, сб
сб1500:00+12ююз4118557 0.0 1010243
03:00+12ююз49872 0.0 1010214
06:00+11ю499415 0.0 1011187
09:00+17ююз58690 0.0 1011586
12:00+21юз67520 0.0 10121664
15:00+23юз574396 0.0 10112463
18:00+19ююз3660100 0.0 1012140
21:00+17зюз2268100 0.0 101240
16 мая, вс
вс1600:00+14ююз12797 0.0 101313
03:00+13зюз22860 0.0 101311
06:00+13ссв118338 0.0 101314
09:00+19св3364100 0.0 1013381
12:00+22в4444100 0.0 10121327
15:00+24в443851 0.0 10101985
18:00+23всв4651100 0.0 1009449
21:00+18св41064100 0.0 1008191
17 мая, пн
пн1700:00+16ссв41181100 1.0 1006216
03:00+15св4890100 2.3 1005185
06:00+15с5894100 1.4 1003207
09:00+18с4579100 1.4 1003516
12:00+23св226261 0.0 1002996
15:00+22ю6768100 3.6 1001989
18:00+17зсз898897 1.9 1003584
21:00+15зюз479020 1.9 1005365
18 мая, вт
вт1800:00+13юз48965 0.0 1006215
03:00+14ю379799 0.1 1006267
06:00+12ю379715 0.0 1006176
09:00+18ю5874100 0.0 1006484
12:00+21ю710615 2.0 10061450
15:00+21зюз896279 5.9 10061429
18:00+19зсз78663 0.4 10071188
21:00+14з47825 0.4 1009127
19 мая, ср
ср1900:00+12зсз35893 0.0 1010100
03:00+11зсз229350 0.0 101128
06:00+11сз2291100 0.0 101155
09:00+16ссз1167100 0.0 1011512
12:00+19ю1153100 0.1 10111366
15:00+18в0152100 0.2 10101101
18:00+16св3572100 0.3 1010280
21:00+13юв2390100 0.6 101175